星链-5452 (STARLINK-5452 )

导读 | 豆包AI

STARLINK-5452是美国SpaceX公司星链(Starlink)互联网卫星星座的一员,于北京时间2022年12月17日8时发射入轨,归属星链第五批次组网卫星序列。它依托低轨轨道部署,为全球范围提供高速低延迟互联网接入服务,推进星链星座全球覆盖的组网进程,拓展太空互联网基础设施布局。

基本信息
目录编号:
54772
目录名称:
STARLINK-5452
国际标识:
2022-175Q
轨道中心:
EARTH
卫星名称:
星链-5452
卫星全名:
星链-5452 (STARLINK-5452 )
卫星状态:
在轨 (已飞行1184 天)
发射日期:
2022-12-17 UTC
国别 :
美国 (US)
星等 :
--
轨道信息
数据来源 国际轨道数据 AOE轨道数据
星历时间 2026-03-15T10:17:56+0800
10小时前
查看轨道信息
2026-03-14T16:00:00+0800
1天前
查看轨道信息
半长轴 6917.888km 6917.864km
偏心率 0.0001254 0.0001275
轨道倾角 53.219° 53.218°
近地点辐角 88.810° 83.809°
升交点赤经 4.995° 8.419°
平近点角 271.303° 92.548°
近地点 538.883km 538.844km
远地点 540.619km 540.61km
周期 95.438分钟 95.437分钟
每日圈数 15.088376 15.088454
详细信息
固有亮度:
5
最大亮度:
2.5
卫星平台:
Starlink v1.5
覆盖范围:
全球
运营商:
太空探索技术公司
运营商所在国:
美国
制造商(研发单位):
太空探索技术公司
制造商所在国:
美国
使用方式:
暂无
卫星简介
星链(Starlink)计划是由太空探索技术公司(SpaceX)提出的一个巨型低轨卫星互联网星座项目,计划在2019年至2024年间在太空搭建由约1.2万颗卫星组成的“星链”网络,其中1584颗将部署在地球上空550千米处的近地轨道,并从2020年开始工作。该卫星仍在工作。
2D轨道图
3D轨道图
轨道高度分析图
轨道倾角分析图
轨道综合分析图
查看轨道综合分析图